Location: *
(48.7358°N, 0.3111°E)
Time: 15:39:45
(UTC+00:00)

Cosmos-2242 - Pass Details

Date: 22 October 2019
Orbit: 590 x 618 km, 82.5° (Epoch: 20 November)

Event Time Altitude Azimuth Distance (km) Brightness Sun altitude
Rises 05:48:39 0° 354° (N) 2,851 6.3 -7.3°
Reaches altitude 10° 05:50:55 10° 359° (N) 1,940 5.5 -7.0°
Maximum altitude 05:55:07 53° 77° (ENE) 731 3.9 -6.3°
Drops below altitude 10° 05:59:15 10° 155° (SSE) 1,917 6.1 -5.6°
Sets 06:01:29 0° 160° (SSE) 2,812 6.9 -5.3°
